| time (UTC) | temp F | wind direction | speed knots | gust knots | rain 1hr in | rain 24hr in | rain mn in | humidity % | barometer mb |
| 20260508043050 | 60 | 0 | 0.0 | 1.7 | 0.00 | 0.00 | 0.00 | 92 | 1016.8 |
| 20260508041550 | 60 | 0 | 0.0 | 1.7 | 0.00 | 0.00 | 0.00 | 92 | 1016.5 |
| 20260508040051 | 60 | 0 | 0.0 | 2.6 | 0.00 | 0.00 | 0.00 | 92 | 1016.4 |
| 20260508034559 | 60 | 268 | 0.0 | 1.7 | 0.00 | 0.00 | 0.00 | 92 | 1016.3 |
| 20260508033051 | 61 | 276 | 0.9 | 2.6 | 0.00 | 0.00 | 0.00 | 92 | 1016.2 |
| 20260508031552 | 61 | 210 | 0.9 | 3.5 | 0.00 | 0.00 | 0.00 | 92 | 1015.8 |
| 20260508030052 | 61 | 205 | 0.0 | 2.6 | 0.00 | 0.00 | 0.00 | 92 | 1015.6 |
| 20260508024556 | 61 | 250 | 0.9 | 2.6 | 0.00 | 0.00 | 0.00 | 91 | 1015.5 |
| 20260508023048 | 61 | 193 | 0.0 | 2.6 | 0.00 | 0.00 | 0.00 | 91 | 1015.2 |
| 20260508021548 | 61 | 243 | 0.9 | 2.6 | 0.00 | 0.00 | 0.00 | 91 | 1015.1 |
| 20260508020046 | 62 | 226 | 0.9 | 2.6 | 0.00 | 0.00 | 0.00 | 90 | 1014.9 |
| 20260508014545 | 62 | 224 | 0.9 | 3.5 | 0.00 | 0.00 | 0.00 | 89 | 1015.1 |
| 20260508013045 | 63 | 193 | 1.7 | 3.5 | 0.00 | 0.00 | 0.00 | 88 | 1014.9 |
| 20260508011557 | 63 | 0 | 0.9 | 3.5 | 0.00 | 0.00 | 0.00 | 87 | 1014.8 |
| 20260508010045 | 65 | 242 | 1.7 | 4.3 | 0.00 | 0.00 | 0.00 | 84 | 1015.0 |
| 20260508004559 | 65 | 130 | 1.7 | 5.2 | 0.00 | 0.00 | 0.00 | 86 | 1014.7 |
| 20260508003047 | 65 | 155 | 1.7 | 5.2 | 0.00 | 0.00 | 0.00 | 85 | 1014.8 |
| 20260508001550 | 64 | 201 | 2.6 | 4.3 | 0.00 | 0.00 | 0.00 | 85 | 1014.8 |
| 20260508000052 | 64 | 186 | 1.7 | 3.5 | 0.00 | 0.00 | 0.00 | 85 | 1014.9 |
| 20260507234555 | 64 | 205 | 1.7 | 4.3 | 0.00 | 0.00 | 0.00 | 87 | 1014.9 |
| 20260507233045 | 65 | 236 | 0.9 | 4.3 | 0.00 | 0.00 | 0.00 | 85 | 1014.9 |
| 20260507231551 | 64 | 239 | 1.7 | 4.3 | 0.00 | 0.00 | 0.00 | 86 | 1014.9 |
| 20260507230048 | 64 | 251 | 1.7 | 4.3 | 0.00 | 0.00 | 0.00 | 85 | 1015.0 |
| 20260507224559 | 65 | 239 | 2.6 | 4.3 | 0.00 | 0.00 | 0.00 | 85 | 1015.2 |
| 20260507223056 | 65 | 230 | 1.7 | 4.3 | 0.00 | 0.00 | 0.00 | 84 | 1015.3 |
| 20260507221550 | 65 | 196 | 2.6 | 5.2 | 0.00 | 0.00 | 0.00 | 85 | 1015.4 |
| 20260507220051 | 66 | 190 | 2.6 | 5.2 | 0.00 | 0.00 | 0.00 | 83 | 1015.6 |
| 20260507214549 | 65 | 223 | 2.6 | 6.1 | 0.00 | 0.00 | 0.00 | 83 | 1015.8 |
| 20260507213051 | 65 | 251 | 2.6 | 7.0 | 0.00 | 0.00 | 0.00 | 82 | 1016.1 |
| 20260507211545 | 65 | 266 | 2.6 | 6.1 | 0.00 | 0.00 | 0.00 | 83 | 1016.2 |
| 20260507210053 | 65 | 266 | 3.5 | 6.1 | 0.00 | 0.00 | 0.00 | 83 | 1016.2 |
| 20260507204553 | 65 | 273 | 2.6 | 6.1 | 0.00 | 0.00 | 0.00 | 82 | 1016.3 |
| 20260507203053 | 65 | 245 | 2.6 | 5.2 | 0.00 | 0.00 | 0.00 | 83 | 1016.5 |
| 20260507201556 | 65 | 248 | 2.6 | 6.1 | 0.00 | 0.00 | 0.00 | 82 | 1016.4 |
| 20260507200057 | 65 | 249 | 2.6 | 6.1 | 0.00 | 0.00 | 0.00 | 81 | 1016.5 |
| 20260507194551 | 66 | 212 | 1.7 | 6.1 | 0.00 | 0.00 | 0.00 | 82 | 1016.6 |
| 20260507193054 | 65 | 264 | 1.7 | 4.3 | 0.00 | 0.00 | 0.00 | 82 | 1016.6 |
| 20260507191552 | 65 | 211 | 1.7 | 5.2 | 0.00 | 0.00 | 0.00 | 83 | 1016.8 |
| 20260507190051 | 65 | 231 | 2.6 | 4.3 | 0.00 | 0.00 | 0.00 | 81 | 1017.1 |
| 20260507184551 | 65 | 252 | 1.7 | 4.3 | 0.00 | 0.00 | 0.00 | 82 | 1017.2 |
| 20260507183045 | 64 | 189 | 2.6 | 4.3 | 0.00 | 0.00 | 0.00 | 83 | 1017.4 |
| 20260507181547 | 65 | 233 | 2.6 | 5.2 | 0.00 | 0.00 | 0.00 | 82 | 1017.3 |
| 20260507180053 | 64 | 231 | 2.6 | 5.2 | 0.00 | 0.00 | 0.00 | 83 | 1017.4 |
| 20260507174558 | 64 | 178 | 2.6 | 4.3 | 0.00 | 0.00 | 0.00 | 84 | 1017.2 |
| 20260507173047 | 64 | 157 | 0.9 | 3.5 | 0.00 | 0.00 | 0.00 | 85 | 1017.5 |
| 20260507171604 | 63 | 243 | 0.9 | 3.5 | 0.00 | 0.00 | 0.00 | 86 | 1017.4 |
| 20260507170050 | 62 | 254 | 0.9 | 3.5 | 0.00 | 0.00 | 0.00 | 87 | 1017.4 |
| 20260507164544 | 62 | 113 | 0.9 | 2.6 | 0.00 | 0.00 | 0.00 | 88 | 1017.4 |
| 20260507163050 | 61 | 233 | 0.9 | 3.5 | 0.00 | 0.00 | 0.00 | 90 | 1017.4 |
| 20260507161547 | 61 | 191 | 0.9 | 2.6 | 0.00 | 0.00 | 0.00 | 90 | 1017.3 |
| 20260507160049 | 60 | 271 | 0.9 | 2.6 | 0.00 | 0.00 | 0.00 | 92 | 1017.2 |
| 20260507154547 | 60 | 239 | 0.0 | 1.7 | 0.00 | 0.00 | 0.00 | 92 | 1017.4 |
| 20260507153045 | 59 | 0 | 0.0 | 2.6 | 0.00 | 0.00 | 0.00 | 92 | 1017.6 |
| 20260507151544 | 60 | 264 | 0.9 | 2.6 | 0.00 | 0.00 | 0.00 | 92 | 1017.6 |
| 20260507150055 | 60 | 0 | 0.0 | 3.5 | 0.00 | 0.00 | 0.00 | 92 | 1017.5 |
| 20260507144612 | 59 | 0 | 0.0 | 0.9 | 0.00 | 0.00 | 0.00 | 94 | 1017.4 |
| 20260507143049 | 58 | 0 | 0.0 | 0.0 | 0.00 | 0.00 | 0.00 | 95 | 1017.2 |
| 20260507141606 | 57 | 0 | 0.0 | 0.0 | 0.00 | 0.00 | 0.00 | 95 | 1017.1 |
| 20260507140055 | 56 | 0 | 0.0 | 0.0 | 0.00 | 0.00 | 0.00 | 95 | 1017.0 |
| 20260507134556 | 55 | 0 | 0.0 | 0.0 | 0.00 | 0.00 | 0.00 | 95 | 1016.8 |
| 20260507133051 | 55 | 0 | 0.0 | 0.0 | 0.00 | 0.00 | 0.00 | 94 | 1016.6 |
| 20260507131547 | 55 | 0 | 0.0 | 0.0 | 0.00 | 0.00 | 0.00 | 94 | 1016.6 |
| 20260507130047 | 55 | 0 | 0.0 | 0.0 | 0.00 | 0.00 | 0.00 | 95 | 1016.4 |
| 20260507124546 | 55 | 0 | 0.0 | 0.0 | 0.00 | 0.00 | 0.00 | 94 | 1016.3 |
| 20260507123050 | 55 | 0 | 0.0 | 0.0 | 0.00 | 0.00 | 0.00 | 94 | 1016.3 |
| 20260507121548 | 56 | 0 | 0.0 | 0.0 | 0.00 | 0.00 | 0.00 | 94 | 1016.2 |
| 20260507120054 | 55 | 0 | 0.0 | 0.0 | 0.00 | 0.00 | 0.00 | 94 | 1016.3 |
| 20260507114547 | 55 | 0 | 0.0 | 0.0 | 0.00 | 0.00 | 0.00 | 94 | 1016.3 |
| 20260507113047 | 55 | 0 | 0.0 | 0.0 | 0.00 | 0.00 | 0.00 | 94 | 1016.3 |
| 20260507111551 | 55 | 51 | 0.0 | 0.9 | 0.00 | 0.00 | 0.00 | 94 | 1016.5 |
| 20260507110045 | 55 | 0 | 0.0 | 0.0 | 0.00 | 0.00 | 0.00 | 94 | 1016.7 |
| 20260507104556 | 56 | 0 | 0.0 | 0.0 | 0.00 | 0.00 | 0.00 | 94 | 1016.8 |
| 20260507103049 | 55 | 0 | 0.0 | 0.0 | 0.00 | 0.00 | 0.00 | 94 | 1016.8 |
| 20260507101551 | 56 | 0 | 0.0 | 0.0 | 0.00 | 0.00 | 0.00 | 94 | 1016.8 |
| 20260507100047 | 56 | 0 | 0.0 | 0.0 | 0.00 | 0.00 | 0.00 | 95 | 1016.8 |
| 20260507094548 | 56 | 0 | 0.0 | 0.9 | 0.00 | 0.00 | 0.00 | 94 | 1016.9 |
| 20260507093047 | 56 | 0 | 0.0 | 0.0 | 0.00 | 0.00 | 0.00 | 95 | 1017.0 |
| 20260507091544 | 56 | 0 | 0.0 | 0.0 | 0.00 | 0.00 | 0.00 | 94 | 1017.2 |
| 20260507090046 | 56 | 0 | 0.0 | 2.6 | 0.00 | 0.00 | 0.00 | 95 | 1017.3 |
| 20260507084553 | 57 | 0 | 0.0 | 0.0 | 0.00 | 0.00 | 0.00 | 94 | 1017.7 |
| 20260507083049 | 57 | 0 | 0.0 | 0.0 | 0.00 | 0.00 | 0.00 | 95 | 1017.7 |
| 20260507081557 | 57 | 0 | 0.0 | 0.0 | 0.00 | 0.00 | 0.00 | 94 | 1017.9 |
| 20260507080050 | 57 | 0 | 0.0 | 0.9 | 0.00 | 0.00 | 0.00 | 94 | 1018.0 |
| 20260507074552 | 57 | 60 | 0.0 | 0.9 | 0.00 | 0.00 | 0.00 | 93 | 1017.9 |
| 20260507073052 | 58 | 67 | 0.0 | 0.9 | 0.00 | 0.00 | 0.00 | 93 | 1017.9 |
| 20260507071557 | 58 | 0 | 0.0 | 2.6 | 0.00 | 0.00 | 0.00 | 92 | 1017.9 |
| 20260507070059 | 58 | 10 | 0.9 | 3.5 | 0.00 | 0.00 | 0.00 | 92 | 1018.0 |
| 20260507064553 | 58 | 50 | 0.0 | 1.7 | 0.00 | 0.00 | 0.00 | 91 | 1018.1 |
| 20260507063053 | 58 | 37 | 0.0 | 2.6 | 0.00 | 0.00 | 0.00 | 91 | 1018.2 |
| 20260507061552 | 58 | 0 | 0.0 | 1.7 | 0.00 | 0.00 | 0.00 | 90 | 1018.1 |
| 20260507060055 | 58 | 0 | 0.0 | 2.6 | 0.00 | 0.00 | 0.00 | 90 | 1018.3 |
| 20260507054548 | 58 | 0 | 0.0 | 0.0 | 0.00 | 0.00 | 0.00 | 88 | 1018.1 |
| 20260507053056 | 58 | 0 | 0.0 | 0.0 | 0.00 | 0.00 | 0.00 | 87 | 1017.9 |
| 20260507051549 | 58 | 0 | 0.0 | 0.0 | 0.00 | 0.00 | 0.00 | 86 | 1017.8 |
| 20260507050050 | 59 | 0 | 0.0 | 0.0 | 0.00 | 0.00 | 0.00 | 86 | 1017.8 |
| 20260507044557 | 59 | 0 | 0.0 | 0.0 | 0.00 | 0.00 | 0.00 | 86 | 1017.8 |